This demonstration page uses our WeatherBlox Daily Observations layout. Learn more.

Left ArrowRight Arrow

Hourly Observations for October 4, 2020

Temp ( °F °C ) Dew Point ( °F °C ) Humidity (%) Winds ( mph kmh ) Pressure ( in mb ) Visibility ( mi km ) Precip ( " mm )
12:53 am 00:53 Clear 42 5.6 36 2.2 79 79 SSW 5 7 30.24 1024 10 16 0.00 0.00
1:53 am 01:53 Clear 40 4.4 35 1.7 83 83 SW 3 6 30.25 1024 10 16 0.00 0.00
2:53 am 02:53 Mostly Clear 40 4.4 36 2.2 86 86 Calm 30.26 1025 10 16 0.00 0.00
3:53 am 03:53 Clear 41 5 36 2.2 82 82 SW 3 6 30.26 1025 10 16 0.00 0.00
4:53 am 04:53 Clear 42 5.6 37 2.8 82 82 Calm 30.26 1025 10 16 0.00 0.00
5:53 am 05:53 Clear 41 5 36 2.2 82 82 Calm 30.28 1025 10 16 0.00 0.00
6:53 am 06:53 Clear 40 4.4 36 2.2 86 86 S 3 6 30.27 1025 10 16 0.00 0.00
7:53 am 07:53 Sunny 40 4.4 36 2.2 86 86 S 5 7 30.29 1026 10 16 0.00 0.00
8:53 am 08:53 Sunny 45 7.2 39 3.9 80 80 S 7 11 30.29 1026 10 16 0.00 0.00
9:53 am 09:53 Sunny 52 11.1 41 5 66 66 S 9 15 30.28 1025 10 16 0.00 0.00
10:53 am 10:53 Sunny 58 14.4 41 5 53 53 S 14 22 30.26 1025 10 16 0.00 0.00
11:53 am 11:53 Sunny 62 16.7 41 5 46 46 S 13 20 30.24 1024 10 16 0.00 0.00
12:53 pm 12:53 Sunny 66 18.9 42 5.6 42 42 S 14 22 30.21 1023 10 16 0.00 0.00
1:53 pm 13:53 Sunny 69 20.6 41 5 36 36 S 15 24 30.17 1022 10 16 0.00 0.00
2:53 pm 14:53 Sunny 70 21.1 41 5 35 35 S 12 19 30.14 1021 10 16 0.00 0.00
3:53 pm 15:53 Sunny 71 21.7 40 4.4 32 32 S 17 28 30.12 1020 10 16 0.00 0.00
4:53 pm 16:53 Sunny 71 21.7 41 5 34 34 S 17 28 30.10 1019 10 16 0.00 0.00
5:53 pm 17:53 Sunny 70 21.1 41 5 35 35 S 15 24 30.08 1019 10 16 0.00 0.00
6:53 pm 18:53 Sunny 67 19.4 41 5 39 39 SSE 15 24 30.07 1018 10 16 0.00 0.00
7:53 pm 19:53 Clear 64 17.8 41 5 43 43 SSE 12 19 30.08 1019 10 16 0.00 0.00
8:53 pm 20:53 Clear 61 16.1 40 4.4 46 46 SSE 13 20 30.07 1018 10 16 0.00 0.00
9:53 pm 21:53 Clear 58 14.4 40 4.4 51 51 S 14 22 30.06 1018 10 16 0.00 0.00
10:53 pm 22:53 Clear 57 13.9 40 4.4 53 53 S 13 20 30.06 1018 10 16 0.00 0.00
11:53 pm 23:53 Clear 56 13.3 40 4.4 55 55 S 12 19 30.03 1017 10 16 0.00 0.00

Powered by AerisWeather